HYLAS 4 (43272 NORAD) Tracking and Keplerian Element Data

This shows tracking and keplerian element data for the satellite.

Feedback or suggestion? Click here.




ElementValue
Catalog43272
NameHYLAS 4
Epoch Orbit2827
Epoch Day354.11667878
Epoch Year2025
RAAN297.9176
Inclination0.0196
Eccentricity9.47E-05
Argument of Perigee337.2895
Mean Anonmoly182.2714
Mean Motion1.00272881
Decay Rate-2.09E-06
L11 43272U 18033B 25354.11667878 -.00000209 00000+0 00000+0 0 9996
L22 43272 0.0196 297.9176 0000947 337.2895 182.2714 1.00272881 28277



Live tracking and technical data element details for HYLAS 4 (NORAD 43272). HYLAS 4 can be tracked NOW for your location showing map with azimuth and elevation plus other details from your city location.







IsCatalogInMostPopularTable: catalog: 43272, numindb: 1203
Update: records affected: 1



GetName: 43272 HYLAS 4

Hit Count: updated at: Mon, 18 May 2026 09:54:32 GMT